Regional Weather Roundup
Issued by NWS Sioux Falls, SD

Home | Current Version | Previous Version | Graphics & Text | Print | Product List | Glossary On
Versions: 1 2 3 4 5 6 7 8 9 10 11 12 13 14 15 16 17 18 19 20 21 22 23 24 25 26 27 28 29 30 31 32 33 34 35 36 37 38 39 40 41 42 43 44 45 46 47 48 49 50
178
ASUS43 KFSD 271510
RWRFSD

WEATHER ROUNDUP FOR SE SOUTH DAKOTA/SW MINNESOTA/NW IOWA
NATIONAL WEATHER SERVICE SIOUX FALLS SD
1000 AM CDT FRI MAY 27 2016

NOTE: "FAIR" INDICATES FEW OR NO CLOUDS BELOW 12,000 FEET WITH NO
SIGNIFICANT WEATHER AND OR OBSTRUCTIONS TO VISIBILITY.


SDZ038>040-050-052>070-271600-
SOUTHEAST SOUTH DAKOTA

CITY           SKY/WX    TMP DP  RH WIND       PRES   REMARKS
BROOKINGS      LGT RAIN  62  58  86 S9        29.79R
CHAMBERLAIN    RAIN      61  59  92 SW6       29.80R
HURON          CLOUDY    64  59  83 MISG      29.76R
MADISON        LGT RAIN  59  59 100 S15       29.81R
MITCHELL       LGT RAIN  62  60  93 S15       29.78S FOG
SIOUX FALLS    LGT RAIN  63  58  83 SW5       29.79R
WINNER         LGT RAIN  59  54  83 SW12      29.84R
YANKTON        PTSUNNY   63  57  82 SE8       29.77F
$$

MNZ071-072-080-081-089-090-097-098-271600-
SOUTHWEST MINNESOTA

CITY           SKY/WX    TMP DP  RH WIND       PRES   REMARKS
FAIRMONT       CLOUDY    63  57  82 SE13      29.79F
JACKSON        CLOUDY    64  55  72 SE12      29.80S
LUVERNE        LGT RAIN  63  54  72 S9        29.81R
MARSHALL       CLOUDY    67  57  70 S10       29.78R
MONTEVIDEO     PTSUNNY   70  55  60 CALM      29.77S
PIPESTONE      RAIN      63  57  82 SW7       29.80R
REDWOOD FALLS  CLOUDY    67  56  67 SE15      29.77R
TRACY          LGT RAIN  67  57  70 S8        29.79R
WINDOM         CLOUDY    64  57  77 SE6       29.79S
WORTHINGTON    CLOUDY    63  57  81 SE7       29.80R
$$

IAZ001>003-012>014-020>022-031-032-NEZ013-014-SDZ071-271600-
NORTHWEST IOWA

CITY           SKY/WX    TMP DP  RH WIND       PRES   REMARKS
CHEROKEE       CLOUDY    63  62  98 CALM      29.78F
ESTHERVILLE    CLOUDY    64  59  83 S16       29.79S
LE MARS        CLOUDY    63  61  94 CALM      29.80S
ORANGE CITY    LGT RAIN  61  59  94 S6        29.79F
SHELDON        CLOUDY    64  59  82 S7        29.78F
SIOUX CITY     CLOUDY    66  60  81 E3        29.77F
SPENCER        LGT RAIN  64  59  83 S10       29.79S
STORM LAKE     CLOUDY    63  59  88 CALM      29.78F
$$

ABBREVIATIONS USED IN REMARKS
   TC - TEMPERATURE IN CELSIUS
  WCI - WIND CHILL INDEX
   HX - HEAT INDEX
  VSB - VISIBILITY





USA.gov is the U.S. government's official web portal to all federal, state and local government web resources and services.